Location: Dentlein
(49.1477°N, 10.4231°E)
Time: 02:21:21
(UTC+00:00)

ALOS - Pass Details

Date: 23 May 2024
Orbit: 672 x 676 km, 98.0° (Epoch: 19 June)

Event Time Altitude Azimuth Distance (km) Brightness Sun altitude
Rises 01:21:24 0° 22° (NNE) 3,039 7.4 -14.8°
Reaches altitude 10° 01:23:54 10° 34° (NE) 2,119 6.2 -14.6°
Maximum altitude 01:27:57 29° 95° (E) 1,228 3.9 -14.2°
Drops below altitude 10° 01:31:57 10° 155° (SSE) 2,102 4.5 -13.9°
Enters shadow 01:32:48 - 160° (SSE) 2,404 4.7 -13.8°
